Regional Weather Roundup
Issued by NWS

Current Version | Previous Version | Text Only | Print | Product List | Glossary On
Versions: 1 2 3 4 5 6 7 8 9 10 11 12 13 14 15 16 17 18 19 20 21 22 23 24 25 26 27 28 29 30 31 32 33 34 35 36 37 38 39 40 41 42 43 44 45 46 47 48 49 50
000
ASUS45 KREV 220010
RWRNV
NEVADA REGIONAL WEATHER ROUNDUP
NATIONAL WEATHER SERVICE RENO NV
400 PM PST WED FEB 21 2018

NOTE: "FAIR" INDICATES FEW OR NO CLOUDS BELOW 12,000 FEET WITH NO
SIGNIFICANT WEATHER AND/OR OBSTRUCTIONS TO VISIBILITY.

NVZ001-003-004-220100-
WESTERN NEVADA

CITY           SKY/WX    TMP DP  RH WIND       PRES   REMARKS
RENO           PTSUNNY   40   6  24 E6        30.03F
6HR MIN TEMP:  31; 6HR MAX TEMP:  41;

CARSON CITY    FAIR      37   1  22 NW7       30.03F
MINDEN         FAIR      37   1  22 NW6       30.03F
PYRAMID LAKE     N/A     37 N/A N/A N2          N/A
FALLON         FAIR      39   9  29 N3        30.06F
6HR MIN TEMP:  32; 6HR MAX TEMP:  41;

LOVELOCK       FAIR      37  10  32 CALM      30.06F
6HR MIN TEMP:  31; 6HR MAX TEMP:  39;

HAWTHORNE      SUNNY     39   5  24 NW14      30.03S
$$

NVZ002-CAZ072-073-220100-
NORTHERN AND CENTRAL SIERRA

CITY           SKY/WX    TMP DP  RH WIND       PRES   REMARKS
S. LAKE TAHOE  FAIR      31   5  33 CALM      29.98F
6HR MIN TEMP:  24; 6HR MAX TEMP:  33;

TRUCKEE        PTSUNNY   30   9  40 NE7       30.00
SQUAW VLY 8000   N/A     21   5  49 W6          N/A
SUSANVILLE     MOSUNNY   39   5  24 SE6       30.04F
BLUE CANYON    FAIR      33  11  39 SW6       30.04S
MAMMOTH LAKES  CLOUDY    28   6  38 W5        29.96S
6HR MIN TEMP:  21; 6HR MAX TEMP:  33;

BRIDGEPORT     CLOUDY    29   6  38 MISG      29.93S
$$

NVZ030-031-036-220100-
NORTHERN NEVADA

CITY           SKY/WX    TMP DP  RH WIND       PRES   REMARKS
ELKO           FAIR      30  10  43 SW9       30.04F
6HR MIN TEMP:  20; 6HR MAX TEMP:  31;

WINNEMUCCA     PTSUNNY   37   9  31 VRB3      30.04F
6HR MIN TEMP:  30; 6HR MAX TEMP:  38;

WENDOVER       FAIR      31  11  43 S6        30.09S
$$

NVZ035-037-220100-
CENTRAL NEVADA

CITY           SKY/WX    TMP DP  RH WIND       PRES   REMARKS
ELY            CLOUDY    28   7  41 W8        29.97S
6HR MIN TEMP:  24; 6HR MAX TEMP:  29;

EUREKA           N/A     28  10  46 N10       29.99S
6HR MIN TEMP:  21; 6HR MAX TEMP:  30;

$$

NVZ013-014-220100-
SOUTH CENTRAL NEVADA

CITY           SKY/WX    TMP DP  RH WIND       PRES   REMARKS
TONOPAH        FAIR      36   1  22 W9        30.00S
6HR MIN TEMP:  30; 6HR MAX TEMP:  38;

$$

NVZ017-020-022-220100-
SOUTHERN NEVADA

CITY           SKY/WX    TMP DP  RH WIND       PRES   REMARKS
LAS VEGAS      PTSUNNY   49  10  20 E5        30.07S
6HR MIN TEMP:  45; 6HR MAX TEMP:  50;

N. LAS VEGAS   FAIR      48   5  17 S6        30.06S
6HR MIN TEMP:  43; 6HR MAX TEMP:  50;

NELLIS AFB     FAIR      49   9  19 S3        30.07S
6HR MIN TEMP:  48; 6HR MAX TEMP:  51;

HENDERSON      PTSUNNY   47   8  20 S3        30.07F
6HR MIN TEMP:  43; 6HR MAX TEMP:  50;

MERCURY        FAIR      46   3  17 W9        30.03S
6HR MIN TEMP:  41; 6HR MAX TEMP:  47;

$$



USA.gov is the U.S. government's official web portal to all federal, state and local government web resources and services.